Погода в Кирове

Россия / Саратовская область     51°01′46″N   46°22′48″E
темп.,
°C
ветер,
м/с
пор.,
м/с
влажн.,
%
обл.,
%
осадки,
мм/ч
давл.,
гПа
погр.,
м
18 мая, ср
ср1801:00+9юз497589 0.0 1005346
04:00+8з6138260 0.0 1005654
07:00+9з714775 0.0 1006919
10:00+12зсз8116073 0.0 10071539
13:00+14зсз8105557 0.3 10081838
16:00+15зсз794970 0.4 10092047
19:00+14сз4662100 0.1 1010951
22:00+10сз2274100 0.3 101213
19 мая, чт
чт1901:00+9сз2277100 0.0 101212
04:00+8зсз228319 0.0 101312
07:00+10сз23755 0.0 1014156
10:00+14зсз3354100 0.0 1014997
13:00+16з4546100 0.0 10142006
16:00+16зсз4551100 0.0 10131404
19:00+15зсз3558100 0.0 1013465
22:00+12сз3664100 0.0 1013109
20 мая, пт
пт2001:00+11ссз4866100 0.0 1012295
04:00+8ссз3682100 0.0 1012170
07:00+9ссз578024 0.0 1013515
10:00+12ссз67555 0.0 10131399
13:00+15сз784290 0.0 10122387
16:00+12ссз8950100 0.0 10131714
19:00+11сз610505 0.0 10142031
22:00+7сз410655 0.0 1014303
21 мая, сб
сб2101:00+6сз3875100 0.0 1014174
04:00+5сз3478100 0.0 101483
07:00+7сз2369100 0.0 1013194
10:00+9ююз2248100 0.0 1011911
13:00+10ююв3345100 0.0 10091560
16:00+7в7877100 2.3 1006893
19:00+4св91396100 11.4 1003730
22:00+4св91596100 20.2 1001858
22 мая, вс
вс2201:00+5с71392100 3.8 10011050
04:00+6с91480100 5.0 1002872
07:00+5ссз9137830 0.0 1005944
10:00+8ссз10135981 0.0 10051607
13:00+9ссз91152100 0.0 10061780
16:00+10ссз71052100 0.0 10071876
19:00+9ссз686199 0.0 10081314
22:00+6ссз3670100 0.0 1009130